カタログに戻る

H-3 R/B

運用中GTO
NORAD 100271·ROCKET BODY·🇯🇵 Japan

打ち上げ Aug 10, 2026 から Tanegashima Space Center

Loading…

TLE

経年Source: Space-Track

元期: Sep 14, 2026, 12:27 UTC

1 A0271U 26182B   26257.51912612  .00043788 -31604-6  10642-2 0  9994
2 A0271  22.5932 278.3162 7251288 200.2713 100.6605  2.36403740   830

AllMySatでH-3 R/Bをリアルタイム追跡

Download on the App Store